Location: Mount Cross
(36.6390°N, 79.4878°W)
Time: 00:54:02
(UTC+00:00)

Vanguard 2 Rocket - Pass Details

Date: 21 March 2023
Orbit: 554 x 3314 km, 32.9° (Epoch: 08 June)

Event Time Altitude Azimuth Distance (km) Brightness Sun altitude
Exits shadow 08:05:51 40° 186° (S) 4,244 9.8 -37.7°
Drops below altitude 10° 08:19:32 10° 148° (SSE) 6,040 11.0 -35.4°
Sets 08:24:13 0° 142° (SE) 6,846 11.4 -34.6°
